DateTime,F1_A11,F1_S11,BsB_S11,BsG_S11,BsR_S11,BbsB_S11,BbsG_S11,BbsR_S11,BaB_A11,BaG_A11,BaR_A11,T_S11,U_S11,P_S11,T1_A11
2016-09-06T00:00:00Z,0000380,20000600,,,,,,,,,,27.3,01.7,0656.1,34.8
2016-09-06T00:01:00Z,0000380,20000600,,,,,,,,,,27.3,01.7,0656.1,34.8
2016-09-06T00:02:00Z,0000380,20000600,,,,,,,,,,27.3,01.7,0656.1,34.8
2016-09-06T00:03:00Z,0000380,60000600,,,,,,,,,,27.4,01.7,0656.1,34.8
2016-09-06T00:04:00Z,0000380,40000600,0000.49,0000.78,0000.27,0000.57,-000.08,0000.05,0000.13,0000.11,0000.13,27.5,01.8,0657.0,34.8
2016-09-06T00:05:00Z,0000380,00000600,-000.86,0000.80,0000.32,-000.42,0000.16,-000.02,0000.11,0000.12,0000.12,27.5,01.8,0657.1,34.8
2016-09-06T00:06:00Z,0000380,00000600,-000.41,0000.49,0000.47,0000.16,-000.14,0000.29,-000.27,-000.18,-000.08,27.5,01.8,0657.1,34.8
2016-09-06T00:07:00Z,0000380,00000600,-000.35,0000.03,-000.02,0000.05,0000.27,-000.39,0000.14,0000.08,0000.05,27.5,01.8,0657.1,34.8
2016-09-06T00:08:00Z,0000380,00000600,-000.38,0000.36,0000.65,-000.02,-000.24,0000.23,-000.06,-000.01,0000.05,27.5,01.7,0657.1,34.8
2016-09-06T00:09:00Z,0000380,00000600,0001.27,0000.39,-000.17,0000.74,0000.18,0000.19,0000.11,0000.07,0000.07,27.5,01.8,0657.1,34.8
2016-09-06T00:10:00Z,0000380,00000600,-000.11,0000.97,-000.13,-000.15,0000.59,0000.18,0000.02,-000.09,-000.29,27.5,01.7,0657.1,34.8
2016-09-06T00:11:00Z,0000380,00000600,0001.21,0000.74,0000.22,0000.63,0000.32,0000.34,0000.02,0000.07,0000.18,27.5,01.7,0657.1,34.8
2016-09-06T00:12:00Z,0000380,00000600,0000.77,0000.38,0000.02,-000.11,0000.42,0000.31,0000.07,0000.04,0000.15,27.5,01.8,0657.1,34.8
2016-09-06T00:13:00Z,0000380,00000600,0000.24,0000.61,0000.38,0000.40,0000.16,0000.66,0000.04,-000.07,-000.04,27.5,01.8,0657.1,34.8
2016-09-06T00:14:00Z,0000380,00000600,0000.54,0000.89,0000.23,0000.39,0000.06,0000.23,-000.04,0000.05,-000.05,27.5,01.8,0657.1,34.8
2016-09-06T00:15:00Z,0000380,00000600,-001.35,0000.78,0000.23,0000.03,-000.16,-000.03,0000.06,0000.02,-000.13,27.5,01.8,0657.1,34.8
2016-09-06T00:16:00Z,0000380,00000600,-000.24,0000.45,0000.25,-000.03,0000.47,-000.08,-000.19,-000.07,-000.13,27.5,01.8,0657.1,34.8
2016-09-06T00:17:00Z,0000380,00000600,0000.53,0000.66,-000.21,-000.02,0000.34,0000.27,0000.20,0000.01,0000.13,27.5,01.8,0657.1,34.8
2016-09-06T00:18:00Z,0000380,00000600,0000.55,0000.69,0000.41,-000.19,-000.35,0000.05,-000.03,-000.06,-000.16,27.5,01.8,0657.1,34.8
2016-09-06T00:19:00Z,0000380,00000600,0001.04,0000.34,-000.16,0000.50,0000.21,-000.37,-000.23,0000.05,-000.05,27.5,01.7,0657.1,34.8
2016-09-06T00:20:00Z,0000380,00000600,0000.39,0000.20,0000.00,-000.60,0000.10,0000.02,0000.28,-000.05,0000.36,27.4,01.7,0657.2,34.8
2016-09-06T00:21:00Z,0000380,00000600,0000.43,0000.17,-000.07,0000.23,0000.47,0000.23,-000.12,-000.15,-000.02,27.4,01.7,0657.1,34.8
2016-09-06T00:22:00Z,0000380,00000600,0000.15,0000.53,0000.14,0000.34,-000.35,-000.16,0000.15,0000.09,-000.04,27.4,01.7,0657.1,34.8
2016-09-06T00:23:00Z,0000380,00000600,-000.31,0000.39,0000.03,0000.39,0000.21,-000.21,-000.08,0000.14,-000.03,27.4,01.7,0657.1,34.8
2016-09-06T00:24:00Z,0000380,00000600,0000.58,0000.61,0000.54,0000.31,0000.32,0000.23,-000.02,-000.04,-000.14,27.4,01.7,0657.1,34.8
2016-09-06T00:25:00Z,0000380,00000600,0000.71,0001.07,0000.21,0000.55,0000.24,-000.10,0000.16,0000.14,0000.10,27.4,01.6,0657.1,34.8
2016-09-06T00:26:00Z,0000380,00000600,0000.13,0000.36,0000.55,-000.03,0000.35,0000.37,-000.12,-000.12,0000.11,27.4,01.6,0657.1,34.8
2016-09-06T00:27:00Z,0000380,00000600,-000.17,0000.65,0000.17,0000.19,0000.24,0000.00,-000.02,0000.09,-000.08,27.4,01.6,0657.1,34.8
2016-09-06T00:28:00Z,0000380,00000600,-000.70,0001.11,0000.27,0000.27,0000.72,-000.18,0000.09,-000.02,0000.13,27.4,01.6,0657.2,34.8
2016-09-06T00:29:00Z,0000380,00000600,0000.80,0000.96,0000.30,-000.05,0000.34,0000.13,0000.20,0000.12,0000.13,27.4,01.6,0657.1,34.8
2016-09-06T00:30:00Z,0000380,00000600,0000.75,0000.17,0000.10,0000.34,-000.10,0000.19,-000.20,-000.01,-000.06,27.5,01.6,0657.1,34.8
2016-09-06T00:31:00Z,0000380,00000600,0000.49,0000.33,-000.03,-000.16,0000.13,-000.08,0000.23,0000.06,0000.04,27.5,01.6,0657.1,34.8
2016-09-06T00:32:00Z,0000380,00000600,0000.41,-000.06,0000.44,0000.02,-000.13,-000.06,-000.13,-000.11,-000.22,27.5,01.5,0657.1,34.8
2016-09-06T00:33:00Z,0000380,00000600,0000.43,0001.05,0000.56,0000.66,0000.14,-000.32,0000.06,0000.03,0000.03,27.5,01.5,0657.1,34.8
2016-09-06T00:34:00Z,0000380,00000600,-000.09,0000.40,0000.27,0000.53,0000.51,0000.27,0000.00,0000.11,0000.12,27.5,01.6,0657.1,34.8
2016-09-06T00:35:00Z,0000380,00000600,-000.50,0000.89,0000.16,-000.52,0000.37,0000.24,-000.15,-000.04,-000.23,27.5,01.6,0657.1,34.8
2016-09-06T00:36:00Z,0000380,00000600,0000.68,0000.87,0000.36,0000.19,0000.29,0000.42,0000.17,-000.08,0000.15,27.5,01.6,0657.1,34.8
2016-09-06T00:37:00Z,0000380,00000600,0001.04,0000.98,0000.10,0000.69,-000.18,-000.10,-000.09,-000.03,-000.13,27.5,01.6,0657.1,34.8
2016-09-06T00:38:00Z,0000380,00000600,-000.05,0000.76,0000.03,0000.06,0000.23,-000.19,-000.07,0000.13,0000.08,27.5,01.6,0657.1,34.8
2016-09-06T00:39:00Z,0000380,00000600,0000.74,0000.34,-000.23,0000.16,-000.13,0000.15,-000.05,-000.22,0000.20,27.5,01.6,0657.1,34.8
2016-09-06T00:40:00Z,0000380,00000600,0000.34,0000.96,0000.76,-000.13,0000.16,0000.18,0000.23,0000.16,-000.11,27.5,01.6,0657.1,34.8
2016-09-06T00:41:00Z,0000380,00000600,-000.33,0000.80,0000.41,-000.02,0000.21,0000.05,-000.10,0000.02,-000.02,27.5,01.6,0657.1,34.8
2016-09-06T00:42:00Z,0000380,00000600,0000.46,0000.61,0000.46,0000.48,0000.19,-000.05,-000.00,-000.07,-000.15,27.5,01.6,0657.0,34.8
2016-09-06T00:43:00Z,0000380,00000600,0000.61,0000.60,0001.13,-000.03,0000.23,0000.31,0000.06,-000.02,0000.17,27.5,01.6,0657.0,34.8
2016-09-06T00:44:00Z,0000380,00000600,0000.54,0000.04,0000.29,0000.08,-000.19,-000.21,-000.20,0000.04,-000.25,27.5,01.7,0657.0,34.8
2016-09-06T00:45:00Z,0000380,00000600,0000.85,0000.19,0000.27,-000.08,-000.31,0000.24,0000.07,-000.01,0000.33,27.5,01.7,0657.0,34.8
2016-09-06T00:46:00Z,0000380,00000600,0000.67,0001.51,0000.32,0000.02,-000.14,0000.40,-000.09,0000.01,-000.22,27.5,01.7,0657.0,34.8
2016-09-06T00:47:00Z,0000380,00000600,0000.13,0001.12,0000.05,-000.08,-000.45,-000.03,0000.06,-000.09,0000.06,27.5,01.7,0657.0,34.8
2016-09-06T00:48:00Z,0000380,00000600,-000.29,0000.22,0000.13,0000.16,-000.08,0000.47,0000.01,0000.24,0000.20,27.4,01.7,0657.0,34.8
2016-09-06T00:49:00Z,0000380,00000600,-000.05,0000.82,0000.00,0000.02,-000.06,-000.29,0000.13,-000.03,0000.09,27.4,01.7,0657.0,34.8
2016-09-06T00:50:00Z,0000380,00000600,0000.72,0000.61,-000.07,-000.10,0000.13,0000.05,0000.00,-000.08,-000.17,27.4,01.7,0657.0,34.8
2016-09-06T00:51:00Z,0000380,00000600,-000.02,0000.43,0000.30,0000.16,0000.03,-000.18,-000.09,-000.06,-000.20,27.4,01.7,0657.0,34.8
2016-09-06T00:52:00Z,0000380,00000600,0000.59,0000.15,-000.18,0000.65,-000.02,-000.05,0000.05,0000.17,0000.31,27.4,01.7,0657.0,34.8
2016-09-06T00:53:00Z,0000380,00000600,0001.08,0000.97,0000.67,0000.13,-000.26,0000.26,0000.07,-000.10,-000.18,27.4,01.7,0657.0,34.8
2016-09-06T00:54:00Z,0000380,00000600,-001.10,0000.19,0000.54,-000.13,0000.06,0000.47,-000.12,0000.10,0000.09,27.4,01.7,0657.0,34.8
2016-09-06T00:55:00Z,0000380,00000600,-000.66,0000.21,0000.35,-000.39,0000.26,0000.21,0000.19,-000.12,0000.03,27.4,01.7,0657.0,34.8
2016-09-06T00:56:00Z,0000380,00000600,-001.22,0000.80,0000.23,0000.32,-000.06,0000.16,0000.08,0000.08,0000.23,27.4,01.7,0657.0,34.8
2016-09-06T00:57:00Z,0000380,40000600,,,,,,,,,,,,0657.0,34.8
2016-09-06T00:58:00Z,0000380,60000600,,,,,,,,,,27.3,01.7,0655.9,34.8
2016-09-06T00:59:00Z,0000380,20000600,,,,,,,,,,27.3,01.7,0655.9,34.8
2016-09-06T01:00:00Z,0000380,20000600,,,,,,,,,,27.3,01.7,0655.9,34.8
2016-09-06T01:01:00Z,0000380,20000600,,,,,,,,,,27.3,01.7,0655.9,34.8
2016-09-06T01:02:00Z,0000380,20000600,,,,,,,,,,27.3,01.7,0655.9,34.8
2016-09-06T01:03:00Z,0000380,60000600,,,,,,,,,,27.4,01.7,0655.9,34.8
2016-09-06T01:04:00Z,0000380,40000600,-000.18,0000.80,0000.28,0000.42,-000.39,0000.15,-000.11,-000.03,-000.17,27.4,01.8,0656.8,34.8
2016-09-06T01:05:00Z,0000380,00000600,0001.42,0000.91,0000.00,0000.23,-000.16,-000.13,-000.06,-000.03,0000.04,27.4,01.8,0656.9,34.8
2016-09-06T01:06:00Z,0000380,00000600,0001.04,0000.43,0000.11,0000.65,0000.10,0000.08,-000.06,-000.00,-000.03,27.5,01.7,0656.9,34.8
2016-09-06T01:07:00Z,0000380,00000600,0001.10,0000.41,0000.51,0000.76,-000.05,-000.02,0000.02,0000.02,-000.16,27.4,01.8,0656.9,34.8
2016-09-06T01:08:00Z,0000380,00000600,0000.61,0000.43,0000.30,0000.18,-000.29,0000.13,0000.11,0000.08,0000.24,27.4,01.8,0656.9,34.8
2016-09-06T01:09:00Z,0000380,00000600,0001.94,0000.59,0000.12,0000.56,0000.19,0000.18,-000.13,-000.03,-000.03,27.4,01.8,0656.9,34.8
2016-09-06T01:10:00Z,0000380,00000600,0001.40,0000.64,0000.58,-000.11,-000.35,-000.05,-000.04,-000.19,-000.05,27.4,01.7,0656.9,34.8
2016-09-06T01:11:00Z,0000380,00000600,0001.36,0000.24,0000.12,-000.21,0000.21,-000.06,0000.21,0000.13,0000.06,27.4,01.8,0656.9,34.8
2016-09-06T01:12:00Z,0000380,00000600,0000.82,0000.27,0000.23,0000.69,-000.06,0000.00,-000.13,0000.02,-000.17,27.3,01.7,0656.9,34.8
2016-09-06T01:13:00Z,0000380,00000600,0000.19,0000.35,0000.21,0000.23,-000.55,0000.11,-000.01,0000.01,0000.10,27.3,01.8,0656.9,34.8
2016-09-06T01:14:00Z,0000380,00000600,0000.75,0000.72,0000.26,0000.52,-000.50,0000.11,-000.07,-000.03,-000.11,27.3,01.8,0656.8,34.8
2016-09-06T01:15:00Z,0000380,00000600,0001.50,0000.52,0000.10,0000.45,-000.31,-000.13,0000.24,0000.06,0000.42,27.4,01.8,0656.9,34.8
2016-09-06T01:16:00Z,0000380,00000600,0000.67,0000.73,0000.39,0000.53,0000.02,-000.10,-000.09,-000.15,-000.04,27.3,01.8,0656.8,34.8
2016-09-06T01:17:00Z,0000380,00000600,0000.41,0000.54,0000.37,0000.03,0000.18,-000.02,-000.03,0000.14,-000.27,27.3,01.8,0656.9,34.8
2016-09-06T01:18:00Z,0000380,00000600,0000.34,0000.33,0000.55,0000.11,0000.19,0000.32,0000.12,0000.02,0000.06,27.3,01.8,0656.8,34.8
2016-09-06T01:19:00Z,0000380,00000600,-000.28,0000.32,0000.14,0000.92,-000.19,0000.13,-000.14,0000.00,-000.04,27.3,01.7,0656.9,34.8
2016-09-06T01:20:00Z,0000380,00000600,0001.30,0000.42,0000.23,0000.27,0000.06,0000.05,-000.03,-000.01,-000.02,27.3,01.8,0656.9,34.8
2016-09-06T01:21:00Z,0000380,00000600,0001.49,0000.69,-000.11,0000.66,-000.13,0000.05,-000.01,0000.08,0000.14,27.4,01.7,0656.8,34.8
2016-09-06T01:22:00Z,0000380,00000600,0000.35,-000.18,0000.07,-000.21,-000.08,0000.05,-000.08,-000.07,0000.23,27.4,01.8,0656.8,34.8
2016-09-06T01:23:00Z,0000380,00000600,0001.26,0000.29,0000.12,0000.37,-000.11,-000.03,-000.01,-000.01,-000.12,27.4,01.8,0656.9,34.8
2016-09-06T01:24:00Z,0000380,00000600,0000.90,0000.97,-000.07,-000.32,-000.19,0000.26,-000.08,-000.10,-000.32,27.4,01.7,0656.9,34.8
2016-09-06T01:25:00Z,0000380,00000600,0000.00,0000.77,0000.15,0000.27,0000.32,0000.44,0000.32,0000.15,0000.12,27.4,01.7,0656.8,34.8
2016-09-06T01:26:00Z,0000380,00000600,0000.38,0001.32,0000.54,-000.13,0000.00,0000.29,-000.24,-000.05,0000.27,27.4,01.7,0656.9,34.8
2016-09-06T01:27:00Z,0000380,00000600,-000.02,0000.86,0000.21,0000.37,0000.10,-000.18,0000.03,-000.12,-000.04,27.4,01.7,0656.9,34.8
2016-09-06T01:28:00Z,0000380,00000600,0001.07,-000.04,0000.47,-000.03,0000.14,-000.08,0000.01,0000.10,-000.03,27.4,01.7,0656.9,34.8
2016-09-06T01:29:00Z,0000380,00000600,0000.64,0000.61,0000.65,0000.13,-000.32,0000.34,0000.05,-000.08,-000.19,27.5,01.7,0656.9,34.8
2016-09-06T01:30:00Z,0000380,00000600,0000.65,0000.25,0000.37,0000.26,0000.34,0000.47,0000.05,0000.25,0000.04,27.4,01.7,0656.9,34.8
2016-09-06T01:31:00Z,0000380,00000600,0000.75,0000.52,0001.09,-000.02,0000.26,0000.53,-000.06,-000.08,0000.09,27.4,01.7,0656.9,34.8
2016-09-06T01:32:00Z,0000380,00000600,0001.64,0000.46,0000.09,0000.34,-000.02,0000.16,-000.01,-000.17,0000.05,27.4,01.7,0656.9,34.8
2016-09-06T01:33:00Z,0000380,00000600,0000.45,0000.58,0000.55,0000.48,-000.24,0000.47,0000.33,-000.02,-000.16,27.4,01.8,0656.9,34.8
2016-09-06T01:34:00Z,0000380,00000600,0000.52,0000.37,0000.38,-000.15,-000.03,0000.37,-000.27,0000.15,0000.04,27.4,01.7,0656.9,34.8
2016-09-06T01:35:00Z,0000380,00000600,0001.70,0000.12,0000.19,-000.02,0000.11,-000.24,0000.03,-000.02,0000.11,27.4,01.7,0656.9,34.8
2016-09-06T01:36:00Z,0000380,00000600,0001.10,0000.38,0000.20,0000.18,-000.14,0000.06,-000.16,-000.02,-000.09,27.4,01.7,0656.9,34.8
2016-09-06T01:37:00Z,0000380,00000600,0000.53,0000.12,-000.18,0000.03,-000.58,-000.03,0000.16,-000.06,0000.27,27.4,01.7,0656.9,34.8
2016-09-06T01:38:00Z,0000380,00000600,0000.50,0000.58,0000.30,-000.73,0000.05,0000.10,0000.00,-000.02,-000.38,27.4,01.7,0656.9,34.8
2016-09-06T01:39:00Z,0000380,00000600,0000.27,0000.49,0000.00,0000.50,0000.34,0000.13,0000.06,0000.06,0000.03,27.4,01.8,0656.9,34.8
2016-09-06T01:40:00Z,0000380,00000600,0000.77,0000.47,0000.32,0000.50,0000.14,-000.03,-000.05,0000.02,0000.14,27.3,01.8,0656.9,34.8
2016-09-06T01:41:00Z,0000380,00000600,0000.61,-000.15,-000.03,-000.65,-000.05,-000.37,-000.01,-000.04,0000.04,27.4,01.7,0656.9,34.8
2016-09-06T01:42:00Z,0000380,00000600,0000.47,0000.57,0000.20,0000.60,0000.03,0000.00,-000.04,0000.15,-000.12,27.3,01.7,0656.9,34.8
2016-09-06T01:43:00Z,0000380,00000600,0000.60,0000.00,0000.84,0000.89,0000.03,-000.05,0000.01,-000.12,0000.11,27.4,01.7,0656.9,34.8
2016-09-06T01:44:00Z,0000380,00000600,0000.15,0000.29,0000.62,-000.02,0000.02,0000.55,-000.12,-000.00,0000.24,27.4,01.7,0656.9,34.8
2016-09-06T01:45:00Z,0000380,00000600,0000.63,-000.33,0000.02,0000.00,0000.26,0000.34,0000.25,-000.00,-000.33,27.4,01.7,0656.8,34.8
2016-09-06T01:46:00Z,0000380,00000600,0000.77,0000.16,0000.52,0000.58,0000.37,0000.18,-000.11,-000.06,0000.06,27.4,01.8,0656.8,34.8
2016-09-06T01:47:00Z,0000380,00000600,0000.47,-000.07,-000.04,-000.23,-000.26,0000.37,0000.00,0000.24,0000.12,27.4,01.7,0656.8,34.8
2016-09-06T01:48:00Z,0000380,00000600,0000.33,0000.10,0000.17,0000.32,-000.40,0000.00,0000.09,-000.20,-000.08,27.4,01.8,0656.8,34.8
2016-09-06T01:49:00Z,0000380,00000600,0000.70,0000.52,0000.54,0000.19,-000.31,0000.19,-000.20,-000.00,0000.19,27.4,01.8,0656.8,34.8
2016-09-06T01:50:00Z,0000380,00000600,0000.95,0000.57,0000.34,0000.58,0000.39,0000.21,0000.16,0000.14,-000.12,27.4,01.7,0656.8,34.8
2016-09-06T01:51:00Z,0000380,00000600,0000.39,0000.72,0000.56,0000.87,0000.47,-000.18,-000.12,0000.00,0000.27,27.4,01.8,0656.8,34.8
2016-09-06T01:52:00Z,0000380,00000600,0000.54,0000.44,0000.30,0000.73,-000.16,0000.27,0000.02,-000.03,-000.39,27.5,01.7,0656.8,34.8
2016-09-06T01:53:00Z,0000380,00000600,0000.36,0000.24,0000.28,0000.02,-000.19,-000.16,0000.14,0000.01,0000.08,27.5,01.8,0656.8,34.8
2016-09-06T01:54:00Z,0000380,00000600,0001.39,0000.45,-000.36,-000.08,-000.13,-000.31,-000.09,0000.11,0000.26,27.4,01.8,0656.8,34.8
2016-09-06T01:55:00Z,0000380,00000600,0000.41,0000.40,-000.04,0000.00,0000.16,-000.40,-000.02,-000.29,-000.34,27.5,01.7,0656.8,34.8
2016-09-06T01:56:00Z,0000380,00000600,0000.29,0000.31,0000.72,0000.66,0000.06,-000.08,0000.19,0000.18,0000.33,27.4,01.7,0656.8,34.8
2016-09-06T01:57:00Z,0000380,40000600,,,,,,,,,,,,0656.9,34.8
2016-09-06T01:58:00Z,0000380,60000600,,,,,,,,,,27.3,01.7,0655.8,34.8
2016-09-06T01:59:00Z,0000380,20000600,,,,,,,,,,27.3,01.7,0655.7,34.8
2016-09-06T02:00:00Z,0000380,20000600,,,,,,,,,,27.3,01.7,0655.7,34.8
2016-09-06T02:01:00Z,0000380,20000600,,,,,,,,,,27.3,01.7,0655.7,34.8
2016-09-06T02:02:00Z,0000380,20000600,,,,,,,,,,27.3,01.7,0655.7,34.8
2016-09-06T02:03:00Z,0000380,60000600,,,,,,,,,,27.4,01.7,0655.7,34.8
2016-09-06T02:04:00Z,0000380,40000600,0000.57,0000.42,0000.44,-000.57,-000.74,-000.18,0000.11,-000.01,0000.18,27.5,01.8,0656.7,34.8
2016-09-06T02:05:00Z,0000380,00000600,0000.32,0000.36,0000.11,-000.06,-000.40,0000.06,-000.14,0000.06,-000.07,27.5,01.7,0656.7,34.8
2016-09-06T02:06:00Z,0000380,00000600,0000.30,0000.56,0000.52,-000.29,-000.47,-000.05,0000.14,-000.11,-000.03,27.4,01.8,0656.7,34.8
2016-09-06T02:07:00Z,0000380,00000600,0000.81,0000.82,0000.09,0000.10,-000.06,0000.08,0000.08,0000.16,-000.07,27.5,01.7,0656.7,34.8
2016-09-06T02:08:00Z,0000380,00000600,0000.06,0000.31,0000.59,-000.03,-000.34,0000.21,-000.09,-000.03,0000.09,27.5,01.7,0656.7,34.8
2016-09-06T02:09:00Z,0000380,00000600,0000.32,-000.36,0000.06,-000.36,-000.24,0000.02,0000.08,-000.00,0000.15,27.5,01.7,0656.7,34.8
2016-09-06T02:10:00Z,0000380,00000600,0001.03,0000.59,0000.30,0000.27,0000.03,0000.21,-000.09,0000.16,0000.02,27.5,01.7,0656.7,34.8
2016-09-06T02:11:00Z,0000380,00000600,0000.03,-000.12,0000.53,-000.34,0000.14,0000.16,-000.04,-000.30,-000.39,27.5,01.7,0656.7,34.8
2016-09-06T02:12:00Z,0000380,00000600,0000.41,0000.27,0000.22,0000.87,0000.03,0000.11,-000.06,0000.24,0000.12,27.5,01.7,0656.7,34.8
2016-09-06T02:13:00Z,0000380,00000600,0001.17,0000.09,0000.69,0000.27,-000.23,0000.34,0000.19,-000.19,-000.06,27.5,01.7,0656.7,34.8
2016-09-06T02:14:00Z,0000380,00000600,0000.82,0000.69,0000.61,0000.08,0000.05,0000.29,-000.08,0000.16,-000.01,27.5,01.7,0656.7,34.8
2016-09-06T02:15:00Z,0000380,00000600,0000.42,0000.25,-000.17,-000.13,0000.18,-000.18,0000.01,-000.04,0000.13,27.5,01.7,0656.7,34.8
2016-09-06T02:16:00Z,0000380,00000600,0000.54,0000.19,0000.95,0000.63,-000.31,0000.21,-000.02,0000.10,0000.18,27.5,01.7,0656.7,34.8
2016-09-06T02:17:00Z,0000380,00000600,0000.60,-000.29,0001.34,-000.03,0000.03,0000.02,0000.13,0000.01,-000.19,27.5,01.7,0656.7,34.8
2016-09-06T02:18:00Z,0000380,00000600,-000.31,0000.02,0000.59,0000.31,0000.31,-000.08,0000.04,-000.19,0000.05,27.5,01.8,0656.7,34.8
2016-09-06T02:19:00Z,0000380,00000600,0000.80,0000.41,0000.52,0000.23,0000.14,0000.16,-000.24,0000.22,0000.01,27.5,01.8,0656.7,34.8
2016-09-06T02:20:00Z,0000380,00000600,-000.09,0000.02,-000.15,0000.24,0000.11,0000.31,0000.03,-000.20,-000.10,27.4,01.7,0656.6,34.8
2016-09-06T02:21:00Z,0000380,00000600,-000.17,0000.24,0000.42,0000.03,-000.53,-000.06,-000.03,0000.08,-000.23,27.5,01.7,0656.7,34.8
2016-09-06T02:22:00Z,0000380,00000600,-000.47,0000.94,0000.38,-000.29,-000.08,-000.29,0000.13,0000.05,0000.42,27.4,01.7,0656.7,34.8
2016-09-06T02:23:00Z,0000380,00000600,0000.10,0000.18,0000.56,-000.16,-000.03,0000.29,0000.03,-000.16,0000.02,27.4,01.7,0656.7,34.8
2016-09-06T02:24:00Z,0000380,00000600,0000.59,-000.62,0000.55,0000.08,-000.18,-000.21,-000.03,-000.03,-000.17,27.4,01.7,0656.7,34.8
2016-09-06T02:25:00Z,0000380,00000600,0000.12,-000.24,0000.08,0000.31,-000.31,-000.08,0000.00,0000.20,-000.32,27.4,01.7,0656.7,34.8
2016-09-06T02:26:00Z,0000380,00000600,0000.16,0000.23,0001.31,-000.10,-000.08,0000.19,0000.07,-000.09,0000.40,27.4,01.7,0656.7,34.8
2016-09-06T02:27:00Z,0000380,00000600,0000.49,0000.08,0000.78,0000.10,-000.39,0000.05,-000.07,0000.01,-000.02,27.4,01.7,0656.7,34.8
2016-09-06T02:28:00Z,0000380,00000600,0000.40,0000.34,-000.25,0000.02,-000.43,-000.44,0000.19,0000.13,0000.16,27.4,01.7,0656.6,34.8
2016-09-06T02:29:00Z,0000380,00000600,0000.32,-000.53,0000.86,-000.06,-000.18,0000.21,-000.21,-000.06,-000.36,27.4,01.7,0656.6,34.8
2016-09-06T02:30:00Z,0000380,00000600,0000.34,0000.37,0000.48,0000.55,-000.50,0000.06,0000.13,0000.02,0000.40,27.4,01.7,0656.7,34.8
2016-09-06T02:31:00Z,0000380,00000600,0000.34,0000.72,0000.43,0000.16,-000.23,0000.32,0000.04,0000.07,-000.02,27.3,01.7,0656.6,34.8
2016-09-06T02:32:00Z,0000380,00000600,0000.06,0000.52,0000.56,0000.89,0000.23,0000.34,-000.00,-000.09,-000.20,27.3,01.7,0656.6,34.8
2016-09-06T02:33:00Z,0000380,00000600,-000.13,0000.45,0000.91,0000.77,-000.58,0000.31,-000.20,-000.00,0000.16,27.3,01.7,0656.6,34.8
2016-09-06T02:34:00Z,0000380,00000600,-000.20,0000.61,-000.26,0000.03,-000.43,0000.05,0000.16,0000.08,0000.03,27.3,01.8,0656.6,34.8
2016-09-06T02:35:00Z,0000380,00000600,-000.27,0000.09,-000.11,0000.37,0000.40,-000.37,-000.13,-000.06,-000.05,27.3,01.8,0656.6,34.8
2016-09-06T02:36:00Z,0000380,00000600,-000.16,-000.09,0001.07,0000.19,0000.21,0000.58,-000.07,0000.05,-000.05,27.3,01.7,0656.6,34.8
2016-09-06T02:37:00Z,0000380,00000600,-000.56,0000.49,0000.63,-000.15,-000.06,-000.10,0000.23,-000.04,0000.23,27.3,01.8,0656.6,34.8
2016-09-06T02:38:00Z,0000380,00000600,0000.25,0000.35,0000.18,-000.26,-000.16,0000.15,0000.06,0000.03,-000.13,27.4,01.8,0656.6,34.8
2016-09-06T02:39:00Z,0000380,00000600,0000.11,0000.00,0000.45,0000.34,-000.45,0000.40,-000.05,-000.10,-000.20,27.4,01.8,0656.6,34.8
2016-09-06T02:40:00Z,0000380,00000600,0000.04,0000.53,0000.55,-000.47,-000.61,0000.03,-000.03,0000.14,0000.07,27.4,01.6,0656.6,34.8
2016-09-06T02:41:00Z,0000380,00000600,0000.72,0000.23,0000.71,-000.13,-000.24,0000.16,-000.03,0000.10,0000.06,27.4,01.8,0656.6,34.8
2016-09-06T02:42:00Z,0000380,00000600,-000.70,0000.56,0000.44,0000.06,0000.14,-000.03,0000.11,-000.02,0000.05,27.4,01.8,0656.6,34.8
2016-09-06T02:43:00Z,0000380,00000600,-000.60,0000.21,0000.47,-000.06,-000.48,0000.42,-000.25,-000.15,-000.13,27.5,01.8,0656.5,34.8
2016-09-06T02:44:00Z,0000380,00000600,0001.29,0000.02,0000.57,-000.23,-000.31,-000.02,0000.16,0000.11,0000.05,27.5,01.7,0656.5,34.8
2016-09-06T02:45:00Z,0000380,00000600,0000.76,0000.62,0000.06,0000.03,0000.29,0000.06,-000.03,0000.00,0000.06,27.5,01.8,0656.5,34.8
2016-09-06T02:46:00Z,0000380,00000600,0001.38,0000.63,0000.37,-000.06,-000.29,-000.08,-000.04,-000.07,-000.29,27.5,01.7,0656.5,34.8
2016-09-06T02:47:00Z,0000380,00000600,0000.96,0000.00,0000.13,0000.11,-000.51,-000.03,-000.04,0000.06,0000.21,27.5,01.7,0656.6,34.8
2016-09-06T02:48:00Z,0000380,00000600,0000.26,0000.15,-000.20,0000.53,-000.48,-000.06,0000.26,0000.01,0000.21,27.4,01.7,0656.5,34.8
2016-09-06T02:49:00Z,0000380,00000600,0000.18,0000.60,0000.43,0000.24,0000.18,-000.21,-000.07,-000.01,-000.10,27.4,01.7,0656.5,34.8
2016-09-06T02:50:00Z,0000380,00000600,0000.16,0000.04,0000.54,0000.42,-000.08,0000.16,0000.04,-000.07,-000.09,27.4,01.8,0656.5,34.8
2016-09-06T02:51:00Z,0000380,00000600,-000.02,0000.07,-000.26,0000.13,-000.27,-000.36,-000.07,-000.08,0000.23,27.4,01.8,0656.5,34.8
2016-09-06T02:52:00Z,0000380,00000600,0000.26,-000.37,0000.77,-000.08,0000.18,0000.08,-000.08,0000.20,-000.33,27.4,01.7,0656.5,34.8
2016-09-06T02:53:00Z,0000380,00000600,-000.27,0000.43,0000.98,0000.11,-000.11,0000.08,0000.11,-000.12,0000.00,27.4,01.9,0656.5,34.8
2016-09-06T02:54:00Z,0000380,00000600,-000.67,0001.02,0000.56,0000.50,0000.19,-000.10,-000.15,0000.08,0000.22,27.4,01.8,0656.5,34.8
2016-09-06T02:55:00Z,0000380,00000600,0000.71,-000.42,0000.72,-000.50,-000.10,-000.23,0000.16,-000.06,0000.04,27.4,01.8,0656.5,34.8
2016-09-06T02:56:00Z,0000380,00000600,0000.35,-000.14,-000.05,0000.02,0000.18,0000.21,-000.04,0000.06,-000.24,27.4,01.7,0656.5,34.8
2016-09-06T02:57:00Z,0000380,40000600,,,,,,,,,,,,0656.5,34.8
2016-09-06T02:58:00Z,0000380,60000600,,,,,,,,,,27.3,01.7,0655.4,34.8
2016-09-06T02:59:00Z,0000380,20000600,,,,,,,,,,27.3,01.7,0655.4,34.8
2016-09-06T03:00:00Z,0000380,20000600,,,,,,,,,,27.3,01.7,0655.4,34.8
2016-09-06T03:01:00Z,0000380,20000600,,,,,,,,,,27.3,01.7,0655.4,34.8
2016-09-06T03:02:00Z,0000380,20000600,,,,,,,,,,27.3,01.7,0655.4,34.8
2016-09-06T03:03:00Z,0000380,60000600,,,,,,,,,,27.4,01.7,0655.4,34.8
2016-09-06T03:04:00Z,0000380,40000600,0001.29,0000.41,-000.08,0000.58,-000.11,0000.03,0000.08,-000.06,0000.09,27.4,01.8,0656.4,34.8
2016-09-06T03:05:00Z,0000380,00000600,0000.44,0000.42,0000.03,0000.32,0000.43,0000.15,0000.10,-000.10,-000.04,27.5,01.8,0656.5,34.8
2016-09-06T03:06:00Z,0000380,00000600,0000.25,0000.86,-000.07,0000.94,0000.45,0000.08,-000.13,0000.03,0000.12,27.5,01.8,0656.5,34.8
2016-09-06T03:07:00Z,0000380,00000600,0000.78,0000.03,0000.35,0000.73,0000.39,-000.06,-000.01,0000.11,-000.09,27.5,01.8,0656.5,34.8
2016-09-06T03:08:00Z,0000380,00000600,0000.64,0000.43,0000.24,0000.06,0000.08,-000.34,-000.06,-000.09,-000.27,27.5,01.8,0656.5,34.8
2016-09-06T03:09:00Z,0000380,00000600,0000.59,0000.70,0000.69,0000.52,0000.31,0000.44,0000.01,0000.03,0000.27,27.5,01.8,0656.4,34.8
2016-09-06T03:10:00Z,0000380,00000600,0001.33,0000.13,0000.56,0000.99,-000.03,0000.29,0000.07,0000.00,-000.17,27.5,01.8,0656.4,34.8
2016-09-06T03:11:00Z,0000380,00000600,-000.46,0000.08,0000.70,0000.60,-000.18,0000.32,0000.08,0000.12,0000.32,27.5,01.8,0656.4,34.8
2016-09-06T03:12:00Z,0000380,00000600,0000.76,-000.13,-000.20,0000.65,-000.06,0000.06,-000.13,-000.09,-000.06,27.5,01.9,0656.4,34.8